Weather in Lensk

Russia / Sakha (Yakutia) Republic     60°42′49″N   114°54′42″E
temp.,
°C
wind,
m/s
gust,
m/s
humid.,
%
clouds,
%
prec.,
mm/h
press.,
hPa
HPBL,
m
5 march, fri
fri500:00−31wsw39960 0.0 1040222
03:00−32sw379815 0.0 1040166
06:00−33sw35980 0.0 104095
09:00−32ssw26967 0.0 1040145
12:00−23sw4108025 0.0 1036519
15:00−19sw497650 0.0 1033727
18:00−19ssw268651 0.0 1031211
21:00−23s228868 0.0 103120
6 march, sat
sat600:00−24sse228150 0.0 102920
03:00−22sse228175 0.0 102747
06:00−21sse228298 0.0 102435
09:00−19sse228499 0.0 102277
12:00−13s2587100 0.1 1019348
15:00−10sw4890100 0.4 1016716
18:00−9sw3893100 0.3 1015810
21:00−12sw2995100 0.6 1015438
7 march, sun
sun700:00−13sw249697 0.1 1014120
03:00−12sw279596 0.3 1014240
06:00−13ssw239695 0.1 101398
09:00−11sw3119596 0.4 1013467
12:00−8sw4987100 0.1 1011633
15:00−6ssw3686100 0.1 1008717
18:00−6s2892100 0.1 1005606
21:00−8sse1297100 0.5 100327
8 march, mon
mon800:00−8ssw21097100 0.5 1001435
03:00−6wsw51091100 1.3 1001857
06:00−9wsw51390100 0.1 1001648
09:00−11wsw4129399 0.1 1002483
12:00−7w5888100 0.1 1002771
15:00−6wnw5887100 0.3 1004880
18:00−7wnw4987100 0.3 1007785
21:00−10w3119399 0.3 1012403
9 march, tue
tue900:00−12w3119490 0.0 1015308
03:00−10wsw5129287 0.1 1017621
06:00−12wsw61393100 0.2 1019581
09:00−13wsw51290100 0.4 1020589
12:00−11sw51187100 0.1 1018670
15:00−8ssw5982100 0.1 1013755
18:00−7sse41177100 0.0 1007567
21:00−9ssw31391100 0.0 10051062